Wind_Speed
31 33 34 34 34 34 34 33 33 32 32 32 31 31 30 30 30 29 28 28 27 27 27 26 26 26 26 25 25 25 25 25 24 24 24 23 24 23 23 23 23 22 22
34 33 35 35 36 35 36 35 35 34 34 33 33 32 32 31 31 30 30 29 29 29 28 28 28 28 27 27 27 27 27 27 27 27 27 27 26 26 25 25 25 25 24
37 37 36 37 37 37 37 37 37 36 36 35 35 34 33 33 32 32 32 31 31 30 30 30 30 30 30 30 29 29 29 28 29 29 29 29 29 29 29 28 27 27 27
39 40 39 39 39 39 38 38 38 37 37 37 36 36 36 35 34 34 34 33 32 32 32 32 32 31 31 31 31 31 31 31 31 31 31 31 31 31 31 31 31 30 29
41 41 41 41 40 40 39 39 38 38 38 38 38 37 37 36 36 35 35 35 34 33 33 34 34 34 34 33 33 33 33 33 33 33 32 32 32 32 33 33 33 32 32
42 42 42 42 42 41 41 40 40 40 40 40 39 39 38 37 37 36 36 36 36 35 35 35 35 36 36 36 35 36 35 35 35 35 34 34 34 34 34 34 34 34 33
42 43 43 42 42 43 42 42 42 42 42 42 40 39 39 39 38 38 37 37 38 38 37 37 37 37 38 39 38 38 37 37 37 37 37 36 35 35 35 35 35 35 34
42 42 43 44 43 43 43 43 43 43 42 43 43 41 40 40 40 40 39 39 39 40 39 39 39 40 40 39 39 40 39 39 39 39 39 38 38 37 37 36 36 36 36
42 43 43 44 43 44 44 44 43 43 43 44 44 43 42 42 42 42 41 41 41 41 41 41 41 41 41 41 42 41 41 41 41 41 41 41 41 40 39 39 38 39 39
43 43 44 44 44 44 45 45 44 44 43 44 44 45 45 44 44 43 43 43 43 42 43 43 42 42 42 42 43 43 43 42 43 43 43 43 43 42 41 41 41 41 41
43 44 45 46 46 45 46 47 47 46 45 46 46 46 45 45 44 44 44 44 44 45 45 44 43 44 44 43 44 44 44 44 44 44 44 44 44 44 44 44 43 43 43
45 45 45 46 46 47 48 48 48 48 49 48 47 48 47 47 45 45 45 45 45 45 46 45 44 45 44 44 44 45 45 44 45 45 46 46 46 46 46 46 46 46 46
46 46 47 47 47 48 49 50 50 50 51 50 49 49 49 48 47 47 46 46 47 48 48 48 46 46 46 47 46 46 47 47 47 48 48 48 48 48 48 48 48 47 47
47 47 47 47 48 49 48 49 50 51 51 51 50 50 49 48 48 48 48 48 48 49 48 48 48 48 48 49 49 48 48 48 48 49 49 49 49 50 50 50 49 49 49
47 47 48 48 49 49 49 49 49 49 51 51 51 51 51 50 48 49 49 50 50 50 50 49 49 49 49 50 51 51 50 50 50 51 51 51 51 51 51 51 51 51 50
46 47 47 48 49 50 50 50 50 50 51 51 52 52 53 52 51 50 50 51 51 51 51 50 50 50 50 50 51 51 52 53 53 53 53 53 53 53 53 52 52 52 52
45 46 46 47 48 49 50 50 51 51 52 52 51 52 53 53 53 52 51 50 51 51 51 51 51 51 51 52 52 52 53 53 54 54 55 55 55 54 53 53 53 53 53
45 45 45 46 46 48 49 49 50 49 51 52 52 52 52 52 53 53 52 51 51 51 51 50 50 50 51 51 52 52 53 54 54 55 55 54 54 53 53 54 54 53 53
45 46 46 46 46 46 47 48 49 49 49 50 51 51 50 51 52 52 52 52 51 50 50 50 50 50 51 52 53 53 54 55 54 54 54 54 53 53 54 54 55 55 54
46 46 46 46 46 46 47 47 48 49 49 49 50 50 50 50 50 50 50 51 52 51 51 50 50 51 51 52 54 54 54 55 54 54 53 53 53 53 54 54 55 55 55
46 46 46 46 47 47 47 48 49 50 49 49 50 50 51 51 51 51 51 51 52 52 52 52 52 52 52 52 53 53 53 54 54 54 53 53 53 54 54 54 54 55 56
45 45 46 45 46 47 47 48 49 50 50 50 50 50 51 52 52 53 52 52 52 52 52 53 53 52 51 52 52 53 53 53 53 53 54 53 53 53 53 53 53 54 55
43 44 45 45 46 47 48 48 49 50 50 50 51 51 51 52 53 53 52 52 52 53 53 53 51 52 52 53 53 53 53 53 52 52 53 52 53 53 52 53 53 53 53
43 43 44 45 46 47 48 48 49 50 50 50 51 52 52 53 53 52 52 51 51 51 51 51 52 52 52 52 53 53 53 52 52 51 52 51 51 51 51 51 51 52 52
44 44 45 45 46 47 49 49 50 50 50 50 51 52 53 53 53 52 52 51 50 50 50 50 51 51 52 52 52 52 52 52 51 51 52 51 50 50 50 50 50 51 51
45 45 46 46 47 48 49 50 50 50 50 50 51 52 53 53 53 53 52 51 50 50 50 50 51 52 52 52 52 52 52 53 52 51 51 51 50 50 49 49 50 51 51
Wind_Direction
256 254 253 253 252 252 253 253 253 253 253 254 254 254 255 256 255 257 259 259 260 261 263 263 264 265 265 265 266 267 267 269 271 272 271 270 269 269 270 271 270 270 271
256 256 254 254 253 253 253 254 254 254 254 255 255 255 256 257 256 256 258 258 259 259 262 263 264 264 264 265 265 267 268 270 271 271 271 271 271 272 272 271 270 270 271
257 257 255 255 255 255 254 254 254 254 254 255 255 255 256 258 258 257 258 259 259 259 261 262 264 263 264 264 265 266 267 269 270 270 271 271 271 272 272 272 272 272 272
259 257 257 256 257 256 255 254 253 254 254 255 255 256 257 257 258 258 258 259 260 260 261 262 263 263 263 264 265 266 267 268 269 269 269 269 270 271 272 271 272 272 272
260 259 257 256 256 257 256 254 253 254 254 254 255 256 257 257 258 259 259 260 260 261 262 263 263 263 264 266 267 267 267 268 268 269 268 268 269 269 270 270 271 271 271
260 259 257 255 255 255 254 254 253 254 255 255 256 256 256 257 259 259 260 260 260 260 262 263 263 264 264 266 267 267 267 268 268 268 268 268 269 270 270 270 270 270 270
260 259 257 255 255 254 254 254 254 253 255 255 255 255 256 257 258 259 259 260 260 261 262 263 264 265 267 267 266 266 266 267 267 267 267 267 268 269 270 270 270 269 269
260 259 257 255 254 254 254 254 254 253 254 254 254 256 256 257 257 257 259 259 260 261 261 263 264 266 267 267 267 266 266 267 267 267 268 267 268 269 270 270 270 270 270
260 259 258 256 254 255 255 254 255 255 255 255 255 256 257 257 257 258 259 260 260 260 261 264 265 266 267 267 268 267 267 266 266 267 267 268 269 269 269 270 269 269 270
260 259 258 256 255 255 254 254 254 256 256 255 255 257 258 259 257 257 259 260 260 261 263 264 265 266 267 268 268 267 267 267 266 267 267 267 267 268 268 268 268 268 269
261 260 258 256 255 255 255 255 254 255 256 256 257 257 258 259 259 258 258 259 260 261 262 264 265 266 267 268 268 268 267 267 267 267 266 266 266 267 267 268 268 268 268
263 260 259 257 256 255 255 256 257 256 256 256 257 257 258 259 259 260 260 260 261 262 263 265 265 266 267 268 268 268 267 267 268 268 267 266 266 266 267 267 268 268 268
263 262 260 258 257 257 257 257 257 257 257 257 257 258 259 260 260 261 261 261 262 263 264 265 266 267 268 268 268 268 268 266 267 267 267 267 267 267 267 267 267 267 268
262 262 261 259 258 258 258 258 258 258 258 257 257 257 259 261 261 261 261 262 263 264 264 265 266 268 269 269 268 268 267 268 268 268 268 267 267 267 267 267 267 267 267
262 262 261 259 258 258 258 259 258 259 259 258 257 257 258 260 261 262 262 262 263 263 263 264 265 267 269 268 268 268 268 268 268 268 268 268 268 268 268 268 267 267 267
261 261 261 259 258 257 257 258 258 259 259 259 258 258 259 259 260 261 262 263 264 264 265 265 265 265 267 268 269 269 269 269 268 268 268 268 268 268 268 268 267 267 266
262 261 261 261 259 258 258 258 259 260 259 259 260 259 259 260 260 261 262 264 264 264 265 265 266 266 267 267 268 269 269 269 269 269 268 268 268 268 267 267 267 266 266
263 261 261 261 261 259 259 259 259 260 260 260 260 261 261 261 261 262 262 263 264 265 266 266 266 267 268 268 269 270 270 269 270 270 269 269 268 267 267 267 266 266 266
264 263 263 262 262 261 261 260 259 260 262 262 261 262 262 262 262 262 263 263 264 265 266 266 266 266 267 268 270 271 270 270 271 270 269 269 269 268 267 267 266 265 265
265 264 265 264 264 263 263 262 261 261 262 261 261 261 262 262 262 262 262 263 263 265 266 267 267 268 269 269 270 270 270 270 270 270 270 269 269 268 267 267 266 266 265
265 265 265 265 264 264 264 264 263 262 262 261 260 261 262 262 262 261 262 263 264 265 266 267 268 269 269 269 269 269 269 270 270 270 269 269 269 269 268 267 267 267 267
266 265 265 266 266 265 266 266 266 265 263 261 261 261 262 262 263 263 264 264 265 266 266 268 269 268 268 269 269 270 269 269 269 270 270 269 270 270 269 268 268 269 268
267 267 267 267 267 268 268 268 268 266 264 263 262 262 263 263 264 264 264 265 266 266 267 268 268 269 269 269 270 270 270 271 271 272 271 271 270 269 268 268 268 268 268
267 267 267 267 268 269 269 269 268 267 265 264 263 263 263 264 265 264 264 265 267 267 267 268 268 269 269 270 271 271 271 272 272 272 271 271 270 269 268 268 268 268 269
267 267 267 268 268 268 269 269 269 268 267 266 264 264 263 263 264 264 265 265 266 267 267 268 269 268 269 270 270 270 270 271 272 272 272 271 270 269 268 268 268 269 269
268 268 268 269 269 270 270 270 269 268 267 267 266 265 264 264 263 264 265 265 265 266 268 268 269 269 269 269 270 270 271 271 272 271 271 272 271 270 268 268 268 268 269
Height
5780 5781 5783 5785 5787 5789 5791 5793 5794 5796 5798 5799 5801 5802 5804 5805 5807 5808 5809 5810 5811 5812 5812 5813 5814 5815 5815 5816 5816 5817 5817 5817 5817 5817 5817 5817 5818 5818 5818 5818 5818 5818 5818
5772 5774 5775 5777 5779 5781 5783 5785 5787 5789 5790 5792 5794 5795 5797 5798 5800 5801 5802 5803 5804 5805 5806 5807 5808 5809 5809 5810 5810 5811 5811 5811 5811 5811 5811 5812 5812 5812 5812 5812 5812 5812 5813
5764 5765 5767 5769 5771 5772 5774 5776 5778 5780 5782 5784 5786 5788 5789 5791 5792 5794 5795 5796 5797 5798 5799 5800 5801 5802 5803 5803 5804 5804 5805 5805 5805 5805 5805 5805 5805 5805 5806 5806 5806 5806 5806
5755 5756 5758 5760 5761 5763 5765 5767 5770 5772 5774 5776 5778 5780 5781 5783 5785 5786 5788 5789 5790 5791 5792 5793 5794 5795 5796 5796 5797 5797 5798 5798 5798 5798 5798 5798 5798 5799 5799 5799 5799 5799 5799
5745 5746 5748 5750 5752 5754 5756 5758 5760 5763 5765 5767 5769 5771 5773 5775 5776 5778 5779 5781 5782 5783 5784 5785 5786 5787 5788 5789 5789 5789 5790 5790 5790 5791 5790 5790 5791 5791 5791 5791 5791 5791 5791
5735 5736 5738 5740 5742 5744 5747 5749 5751 5753 5756 5758 5760 5762 5764 5766 5767 5769 5770 5772 5773 5774 5775 5777 5777 5778 5779 5780 5781 5781 5781 5782 5782 5782 5782 5783 5783 5783 5783 5783 5783 5783 5783
5725 5726 5728 5729 5731 5734 5736 5739 5741 5743 5745 5748 5751 5753 5754 5756 5758 5760 5761 5763 5764 5765 5766 5767 5768 5769 5770 5771 5772 5772 5772 5773 5773 5773 5773 5774 5774 5774 5774 5775 5775 5775 5775
5715 5716 5717 5719 5721 5724 5726 5728 5731 5733 5735 5738 5740 5742 5744 5747 5749 5750 5751 5753 5754 5756 5757 5758 5759 5760 5761 5761 5762 5762 5763 5763 5763 5763 5764 5764 5764 5765 5765 5766 5766 5766 5767
5705 5706 5707 5709 5711 5713 5716 5718 5721 5723 5725 5728 5730 5732 5734 5737 5739 5740 5741 5743 5744 5745 5746 5747 5748 5749 5750 5751 5751 5752 5752 5752 5753 5753 5754 5754 5754 5755 5756 5756 5756 5757 5757
5695 5695 5696 5698 5700 5702 5705 5707 5710 5712 5714 5717 5719 5721 5724 5725 5727 5729 5731 5732 5733 5734 5735 5736 5737 5738 5739 5740 5740 5740 5741 5741 5742 5742 5742 5743 5743 5744 5745 5746 5746 5747 5747
5684 5685 5686 5687 5689 5691 5693 5696 5698 5701 5703 5706 5708 5710 5712 5714 5715 5717 5719 5721 5721 5723 5724 5724 5725 5726 5727 5728 5728 5729 5729 5729 5730 5730 5731 5731 5732 5733 5733 5734 5735 5735 5736
5673 5674 5675 5676 5678 5680 5682 5684 5687 5689 5691 5694 5696 5698 5700 5702 5703 5705 5707 5708 5710 5711 5712 5712 5713 5714 5714 5715 5715 5716 5716 5717 5717 5718 5718 5719 5719 5720 5721 5722 5723 5723 5724
5661 5662 5663 5665 5666 5668 5669 5671 5674 5676 5679 5681 5684 5686 5687 5689 5690 5692 5694 5695 5697 5699 5699 5700 5700 5701 5702 5702 5703 5703 5703 5704 5704 5705 5705 5706 5706 5707 5708 5708 5709 5710 5711
5650 5650 5651 5653 5654 5656 5657 5659 5661 5663 5666 5668 5670 5673 5675 5676 5678 5679 5681 5682 5684 5686 5687 5687 5687 5688 5688 5689 5689 5689 5689 5690 5691 5691 5691 5692 5693 5693 5694 5694 5695 5696 5697
5637 5638 5639 5640 5642 5643 5645 5646 5649 5651 5653 5655 5657 5659 5661 5663 5664 5666 5668 5669 5670 5672 5674 5674 5674 5675 5674 5675 5675 5675 5675 5676 5676 5677 5677 5677 5678 5679 5679 5680 5681 5682 5682
5624 5625 5626 5627 5629 5630 5632 5634 5636 5637 5640 5642 5644 5646 5648 5649 5651 5652 5654 5655 5656 5658 5659 5661 5661 5661 5660 5660 5660 5661 5661 5661 5662 5662 5662 5662 5663 5663 5664 5665 5666 5667 5668
5611 5612 5613 5615 5616 5617 5619 5621 5623 5624 5626 5628 5630 5632 5634 5635 5637 5638 5639 5641 5642 5643 5645 5646 5646 5646 5646 5646 5646 5646 5646 5647 5647 5646 5646 5646 5647 5647 5648 5649 5650 5651 5653
5598 5600 5600 5601 5602 5604 5606 5607 5609 5610 5612 5614 5616 5618 5619 5621 5622 5624 5625 5627 5628 5629 5630 5631 5632 5632 5632 5632 5633 5633 5632 5632 5632 5631 5631 5631 5631 5632 5633 5633 5634 5635 5637
5586 5587 5587 5588 5589 5591 5592 5594 5595 5597 5599 5601 5602 5604 5605 5607 5608 5610 5611 5612 5614 5615 5616 5617 5617 5618 5618 5618 5618 5618 5618 5617 5617 5616 5616 5616 5616 5617 5617 5618 5619 5620 5621
5573 5574 5575 5576 5577 5578 5579 5580 5582 5583 5585 5587 5588 5589 5591 5592 5594 5595 5597 5598 5599 5600 5601 5602 5603 5603 5603 5602 5603 5603 5603 5602 5602 5601 5601 5601 5601 5601 5602 5603 5604 5604 5605
5560 5561 5562 5562 5563 5564 5565 5567 5568 5569 5571 5573 5574 5575 5576 5578 5579 5581 5582 5583 5584 5585 5586 5587 5588 5588 5588 5588 5588 5588 5588 5587 5587 5586 5586 5587 5587 5586 5586 5586 5587 5588 5589
5547 5548 5549 5550 5550 5551 5552 5553 5554 5555 5557 5558 5560 5561 5562 5564 5565 5566 5567 5568 5569 5570 5571 5571 5573 5573 5573 5573 5573 5572 5572 5572 5573 5573 5571 5571 5570 5570 5570 5571 5571 5572 5573
5534 5535 5536 5537 5537 5538 5538 5539 5539 5541 5542 5544 5545 5547 5548 5549 5550 5551 5552 5553 5554 5555 5556 5557 5557 5557 5558 5558 5558 5558 5556 5556 5556 5556 5555 5556 5555 5555 5555 5555 5556 5556 5557
5522 5522 5523 5524 5524 5524 5524 5525 5525 5527 5528 5529 5530 5532 5533 5534 5535 5536 5537 5538 5539 5540 5541 5542 5543 5542 5541 5541 5541 5541 5540 5541 5541 5540 5538 5540 5540 5540 5540 5540 5540 5541 5542
5509 5509 5510 5510 5510 5511 5510 5510 5511 5512 5513 5514 5515 5516 5517 5519 5520 5521 5523 5524 5525 5525 5524 5525 5526 5526 5525 5525 5525 5525 5525 5525 5526 5526 5524 5524 5525 5525 5526 5526 5526 5526 5527
5495 5495 5496 5496 5496 5496 5496 5496 5496 5497 5499 5499 5500 5501 5503 5503 5504 5504 5506 5508 5509 5510 5509 5510 5510 5510 5510 5510 5509 5509 5509 5509 5510 5511 5510 5509 5510 5509 5511 5512 5512 5512 5512